Regional Weather Roundup
Issued by NWS

Home | Current Version | Previous Version | Text Only | Print | Product List | Glossary Off
Versions: 1 2 3 4 5 6 7 8 9 10 11 12 13 14 15 16 17 18 19 20 21 22 23 24 25 26 27

000
ASUS45 KSLC 181810
RWRUT

UTAH REGIONAL WEATHER ROUNDUP
NATIONAL WEATHER SERVICE SALT LAKE CITY UT
1200 PM MDT WED APR 18 2018

UTZ001>011-023>025-181900-

NORTHERN UTAH

CITY           SKY/WX    TMP DP  RH WIND       PRES   REMARKS
BRIGHAM CITY   SUNNY     49  15  26 S7        30.23F
DUGWAY         PTSUNNY   51  15  23 SE3       30.21F
6HR MIN TEMP:  24; 6HR MAX TEMP:  52;

HILL AFB       MOSUNNY   46  18  32 CALM      30.22F
LOGAN          SUNNY     51  22  31 VRB3      30.23F
OGDEN          MOSUNNY   48  16  27 CALM      30.22F
SALT LAKE CITY PTSUNNY   50  18  28 VRB3      30.22F
TOOELE VALLEY  MOSUNNY   48  27  43 SE6       30.22F
WENDOVER       MOSUNNY   47  20  34 E9        30.21F
HEBER CITY       N/A     43  14  31 W5        30.21F
WEST JORDAN    MOSUNNY   47  24  39 SE3       30.22F

$$

UTZ011>015-024>027-181900-

CENTRAL/NORTHEAST UTAH

CITY           SKY/WX    TMP DP  RH WIND       PRES   REMARKS
PROVO AIRPORT  MOSUNNY   46  21  37 W8        30.23F
MOAB/CANYONLAN SUNNY     52   4  14 NE9       30.25S
DELTA          SUNNY     46  25  42 S8        30.20F
PRICE          MOSUNNY   45   6  20 VRB7      30.26S
ROOSEVELT      MOSUNNY   45   9  23 CALM      30.32F
VERNAL         MOSUNNY   45   8  22 E7        30.29F

$$

UTZ013>016-019>022-027-181900-

SOUTHERN UTAH

CITY           SKY/WX    TMP DP  RH WIND       PRES   REMARKS
BRYCE CANYON   SUNNY     42   5  21 SE12G22   30.24S
CEDAR CITY     SUNNY     50  12  21 VRB3      30.17F
MILFORD        SUNNY     48  26  42 NE8       30.18F
ST GEORGE      MOCLDY    61  12  14 VRB6      30.15F
HANKSVILLE     SUNNY     50   5  16 CALM      30.29F
BLANDING         N/A     50  -4  10 W5        30.31F

$$

REGIONAL REPORTS     COLORADO/ARIZONA

CITY           SKY/WX    TMP DP  RH WIND       PRES   REMARKS
CRAIG, CO      SUNNY     39  16  39 VRB3      30.31F
GRAND JUNCTION SUNNY     49  14  24 E6        30.27F
RIFLE, CO      SUNNY     45  19  35 NE6       30.30F
MONTROSE, CO   SUNNY     46   8  21 NW8       30.28F
CORTEZ, CO     SUNNY     51   0  12 SW12G22   30.24S
COLORADO CITY    N/A     59   9  13 E12G20    30.21F
PAGE, AZ       SUNNY     54   9  16 NE6       30.24F
GRAND CANYON   SUNNY     50   1  13 MISG      30.21F
KINGMAN, AZ    SUNNY     69   7   9 E20G26    30.09F
FLAGSTAFF, AZ  SUNNY     48   2  15 NE10G20   30.23R

$$

REGIONAL REPORTS    NEVADA/IDAHO/WYOMING

CITY           SKY/WX    TMP DP  RH WIND       PRES   REMARKS
LAS VEGAS, NV  MOSUNNY   66   9  10 VRB6      30.10F
ELY, NY        MOSUNNY   47  14  26 SE13G25   30.12F
ELKO, NV       MOSUNNY   49  17  28 VRB3      30.10F
POCATELLO, ID  MOSUNNY   49  15  25 S5        30.22F
BURLEY, ID     PTSUNNY   50  19  29 VRB7G17   30.16F
FORT BRIDGER,    N/A     41   9  26 S6        30.26F
EVANSTON, WY   SUNNY     38   9  30 VRB3      30.23F
ROCK SPRINGS,  SUNNY     41   8  25 VRB6      30.25F
KEMMERER, WY   SUNNY     37   7  28 S6        30.24F WCI  33

$$




USA.gov is the U.S. government's official web portal to all federal, state and local government web resources and services.